Location: Unspecified
(52.0000°N, 4.4000°E)
Time: 06:45:42
(UTC+00:00)

Cosmos 1408 Rocket - Pass Details

Date: 14 May 2025
Orbit: 594 x 625 km, 82.6° (Epoch: 14 June)

Event Time Altitude Azimuth Distance (km) Brightness Sun altitude
Rises 23:20:03 0° 350° (N) 2,898 8.7 -19.0°
Reaches altitude 10° 23:22:18 10° 352° (N) 1,983 7.4 -19.0°
Maximum altitude 23:26:42 76° 78° (ENE) 634 3.5 -19.1°
Enters shadow 23:28:03 43° 154° (SSE) 857 3.8 -19.1°
